OPS 4682 DEB, 38394

Orbit data source: Space-Track

OPS 4682 DEB, 38394 is space debris in LEO originally from a launch on Sat, 03 Apr 1965 UTC launched from the Air Force Western Test Range (AFWTR). Debris objects in space refer to the collection of defunct objects orbiting the Earth. Examples of debris include non-operational satellites, rocket bodies, and fragments generated from explosions, collisions, or faulty payload assembly.

Loading next visibility...
Identifier
38394, 1965-027CX
Orbit
LEO
Country
Flag of USUS
Related business
Manufacturer
Unknown
Mission
Spacecraft
Bus & Motor
Unknown
Mass
Unknown
Launch date (UTC)
1965-04-03 (61 years ago)
Launch vehicle
Unknown
Launch site
Air Force Western Test Range (AFWTR)
Object type
Payload
Rocket body
Debris
Shape & HBR
Unknown shape, 0.1 m
Radar Cross Section
Medium (>0.1 m² and <1 m²)

Expand to show TLE details & history
Last TLE update: 6 days ago

TLE from 6 days ago
0 OPS 4682 DEB
1 38394U 65027CX  26229.66671041  .00000687  00000-0  22475-2 0  9992
2 38394  90.2739  25.8217 0037019 184.2676 175.8136 13.00144013 72702
Epoch: 2026-08-17T16:00Z
TLE epoch observation values (Epoch: 2026-08-17T16:00:03.779Z)
Latitude
-0.00001°
Longitude
179.76035°
Altitude
1,292.618 km
Speed
7.197 km/s
True Right ascension
01h 43m 17s
True Declination
0° 00' 00"
Sunlit
Object was in daylight at epoch
Visualization orbit readout
Latitude
Unknown
Longitude
Unknown
Altitude
Unknown
Speed
Unknown
Apparent Right ascension
Unknown
Apparent Declination
Unknown
Sunlit
N/A
Visualization observer readout
Local Sidereal Time
16:02:59
Azimuth
Unknown
Elevation
Unknown
Doppler factor
Unknown
Orbital elements
Apogee altitude
1,286.92 km
Perigee altitude
1,230.379 km
Semi-major axis
7,636.786 km
Eccentricity
0.0037
Inclination
90.2739°
RAAN
25.8217°
Arg. of periapsis
184.2676°
True anomaly
175.84443°
Mean anomaly
175.8136°
Eccentric anomaly
175.82903°
Mean motion
3.2522 °/min
Orbital period
110.69 mins
BSTAR
0.0022475
Loading maneuver chart data...
Computing Atmospheric mass density...
Loading historical data...
Loading historical data...
Loading historical data...
Loading historical data...
Loading historical data...
Loading historical data...
Loading historical data...

Documentation

Showing up to 5 results
|